ATLAS 5 CENTAUR DEB, 43958

Orbit data source: Space-Track

ATLAS 5 CENTAUR DEB, 43958 is space debris in HEO originally from a launch on Wed, 17 Sep 2014 UTC launched from the Air Force Eastern Test Range (AFETR). Debris objects in space refer to the collection of defunct objects orbiting the Earth. Examples of debris include non-operational satellites, rocket bodies, and fragments generated from explosions, collisions, or faulty payload assembly.

Loading next visibility...
Identifier
43958, 2014-055M
Orbit
HEO
Country
Flag of USUS
Related business
Flag of USUnited Launch Alliance/Lockheed Martin (US)
Manufacturer
Unknown
Mission
Spacecraft
Bus & Motor
Unknown
Mass
Unknown
Launch date (UTC)
2014-09-17 (11 years ago)
Launch vehicle
Unknown
Launch site
Air Force Eastern Test Range (AFETR)
Object type
Payload
Rocket body
Debris
Shape & HBR
Unknown shape, 1.1 m
Radar Cross Section
Small (<0.1 m²)

Expand to show TLE details & history
Last TLE update: 6 days ago

TLE from 6 days ago
0 ATLAS 5 CENTAUR DEB
1 43958U 14055M   25280.97212709  .00000012  00000-0  00000-0 0  9991
2 43958  19.9489 159.9523 4758249 136.9452 272.0880  1.89325996 49129
Epoch: 2025-10-07T23:19Z
TLE epoch observation values (Epoch: 2025-10-07T23:19:51.780Z)
Latitude
0.00001°
Longitude
153.17946°
Altitude
26,359.697 km
Speed
3.148 km/s
True Right ascension
10h 39m 59s
True Declination
0° 00' 00"
Sunlit
Object was in daylight at epoch
Visualization orbit readout
Latitude
Unknown
Longitude
Unknown
Altitude
Unknown
Speed
Unknown
Apparent Right ascension
Unknown
Apparent Declination
Unknown
Sunlit
N/A
Visualization observer readout
Local Sidereal Time
20:41:06
Azimuth
Unknown
Elevation
Unknown
Doppler factor
Unknown
Orbital elements
Apogee altitude
34,359.318 km
Perigee altitude
8,090.761 km
Semi-major axis
27,603.177 km
Eccentricity
0.47582
Inclination
19.9489°
RAAN
159.9523°
Arg. of periapsis
136.9452°
True anomaly
223.04988°
Mean anomaly
272.088°
Eccentric anomaly
246.99367°
Mean motion
0.47327 °/min
Orbital period
760.67 mins
BSTAR
0
Loading maneuver chart data...
Computing Atmospheric mass density...

Documentation

Showing up to 5 results
|